Dewpoint
65 65 64 64 64 64 65 64 65 66 66 66 65 65 66 66 67 67 66 66 66 66 66 66 66 67 67 67 67 66 66 65 62 64 66 66 67 66 65 65 64 65 65
66 64 64 65 64 64 64 64 65 65 65 64 65 64 64 65 66 66 66 66 66 65 66 66 66 67 66 66 66 65 65 65 64 62 64 64 64 64 62 60 62 62 62
66 64 64 64 64 64 64 64 64 64 63 63 64 63 63 63 63 63 63 63 63 63 65 64 65 65 64 64 64 63 64 65 64 63 62 64 63 61 59 58 59 58 58
66 65 63 64 64 65 64 64 64 63 62 62 62 63 62 62 62 61 61 61 60 60 61 61 62 62 62 62 62 63 63 63 63 62 62 62 61 60 59 57 56 57 56
66 65 65 64 65 64 64 64 62 61 60 60 61 61 61 61 61 61 60 60 59 58 59 60 61 62 62 61 61 61 61 62 61 61 60 61 61 60 59 58 56 56 55
66 64 65 64 65 63 63 62 59 58 58 60 60 60 60 59 57 58 58 58 58 57 57 57 57 56 56 56 56 57 58 59 60 60 60 59 57 57 57 59 56 55 53
65 66 65 65 64 63 61 59 57 55 55 56 57 59 59 57 56 56 57 56 55 56 57 57 55 52 51 51 50 50 51 53 56 57 51 52 52 53 56 56 55 54 52
62 64 65 65 63 62 59 56 54 52 52 52 54 56 54 52 52 51 51 51 51 52 53 50 49 50 50 48 47 46 47 48 49 50 52 52 51 51 51 54 53 50 51
58 60 65 64 61 59 56 53 51 50 50 50 52 53 51 50 49 48 49 49 48 48 50 50 50 51 51 50 49 49 48 47 48 50 49 49 50 50 50 48 47 47 46
55 56 62 63 60 56 54 51 50 50 49 49 50 49 49 48 47 47 48 47 47 47 48 49 49 48 47 48 49 49 48 47 46 44 43 45 47 47 48 47 46 46 46
53 54 54 56 55 54 51 51 50 49 49 49 49 48 48 48 47 46 46 47 46 46 46 46 46 46 44 44 46 49 49 50 46 42 40 38 37 38 42 43 48 47 48
51 51 51 52 52 51 50 51 50 50 50 49 48 48 49 49 48 47 47 48 49 47 46 45 45 43 42 42 41 42 43 44 42 39 35 33 31 30 32 35 39 46 46
50 50 50 50 50 51 50 50 49 50 49 48 48 47 48 49 49 47 47 47 48 47 48 46 44 41 40 40 43 42 40 36 35 33 32 32 31 30 35 35 38 40 45
48 48 49 49 48 49 49 49 49 48 48 48 47 47 48 48 48 48 49 49 47 47 45 43 43 42 41 39 39 39 39 36 33 32 31 31 31 30 31 32 32 33 35
46 46 46 46 45 44 43 45 46 46 47 47 47 47 45 44 44 44 44 41 42 42 40 39 39 37 35 36 36 37 36 35 33 32 31 29 29 30 30 32 33 32 31
41 40 41 41 40 39 38 38 40 40 39 38 39 42 40 40 37 37 37 38 38 37 36 36 36 37 34 33 33 33 33 34 34 32 30 29 28 30 30 32 32 31 31
37 35 33 31 29 30 30 31 32 33 37 37 36 36 36 35 35 35 36 36 36 36 35 35 35 34 33 33 33 33 32 33 34 30 30 29 29 29 28 28 31 31 31
35 33 29 28 27 27 29 29 30 31 32 32 33 33 34 34 34 35 36 37 36 36 36 34 34 34 34 33 33 32 33 31 30 29 30 29 29 28 28 28 28 31 31
31 29 29 28 28 29 28 27 27 30 31 31 30 32 32 34 35 35 35 37 35 34 35 35 35 34 33 33 33 34 35 32 30 29 29 28 28 29 29 28 27 29 30
34 34 32 31 30 30 29 27 27 30 31 31 31 30 30 32 32 33 34 34 34 33 33 33 33 33 33 34 34 34 34 32 30 29 29 29 28 30 28 28 28 28 29
34 37 35 32 31 31 32 31 29 28 30 30 31 31 33 32 32 31 30 31 32 32 32 32 31 31 32 34 34 34 33 32 30 30 29 27 28 28 31 30 29 29 28
38 37 38 34 34 34 34 35 35 31 30 30 31 32 35 33 32 33 31 30 31 32 31 33 31 30 31 32 34 33 32 31 31 31 29 27 27 29 31 30 29 27 27
41 41 40 41 40 39 37 36 37 37 34 33 33 32 32 34 32 32 31 30 32 32 32 32 31 30 31 34 33 34 31 32 32 31 29 28 27 26 31 30 28 26 26
43 44 43 42 42 41 41 41 40 38 38 37 35 34 33 33 31 32 32 32 32 33 33 33 33 31 33 34 34 34 34 34 32 30 30 28 24 27 29 29 27 26 25
46 45 42 44 43 42 42 41 41 39 39 38 36 33 29 30 31 30 32 32 33 33 33 33 33 33 33 33 33 33 33 30 32 30 27 24 23 28 29 29 28 27 26
39 41 42 44 44 42 42 42 41 41 39 38 36 33 30 28 29 30 33 34 33 33 33 33 33 32 32 33 33 32 31 30 30 28 24 22 22 27 29 30 30 30 28
Lifted_Index
-2 -2 -1 -1 -0 0 0 0 0 -0 -0 -0 -0 -0 -1 -1 -1 -1 -1 -1 -1 -1 -1 -1 -1 -1 -1 -1 -1 -0 -0 0 0 1 1 1 0 -0 -0 0 1 1 2
-2 -2 -1 -1 -0 0 0 0 0 -0 -0 -0 -0 -0 -1 -1 -1 -1 -1 -1 -1 -1 -1 -1 -1 -1 -1 -1 -0 -0 0 0 0 1 1 1 1 0 1 1 1 2 3
-2 -2 -1 -1 -1 -0 1 1 1 1 0 0 -0 -0 -0 -1 -1 -1 -1 -1 -0 -0 -0 -0 -0 -0 -0 -0 0 0 1 1 1 1 1 1 1 1 1 2 2 3 3
-2 -2 -2 -1 -1 -0 0 1 1 1 1 1 1 1 0 0 0 0 0 0 0 0 0 0 0 0 1 1 1 1 1 1 1 2 2 2 2 2 2 2 3 3 3
-2 -2 -2 -1 -1 -0 0 1 2 2 2 2 2 2 2 2 2 1 1 1 1 1 1 1 1 1 2 2 2 2 2 2 2 2 2 2 2 2 2 3 3 3 3
-2 -2 -2 -1 -1 -0 1 2 2 3 3 3 3 3 3 3 3 3 2 2 2 2 2 2 2 2 3 3 3 3 3 3 3 3 3 3 3 3 3 3 3 3 3
-2 -2 -2 -1 -1 0 1 2 3 3 3 4 4 4 4 4 4 4 4 3 3 3 3 4 4 4 4 4 4 4 4 4 4 3 3 3 3 3 3 3 3 3 3
-2 -2 -2 -1 -0 1 2 2 3 3 4 4 4 5 5 5 5 5 5 5 4 4 4 5 5 5 6 6 6 6 6 6 6 6 5 5 5 6 5 5 4 4 4
-1 -1 -1 -1 -1 0 2 3 3 4 4 5 5 5 6 6 7 7 7 6 6 6 6 6 6 7 8 8 7 7 7 7 8 8 8 8 9 9 8 8 6 5 5
2 1 -1 -1 -1 0 1 2 3 3 4 5 5 5 6 6 7 7 7 7 7 7 6 7 7 7 8 8 8 7 7 8 9 9 9 10 10 10 10 10 9 7 6
3 2 1 -0 -0 0 1 2 2 2 3 4 4 5 5 6 6 6 7 7 7 7 7 7 7 8 8 8 8 7 8 8 8 8 9 9 10 11 11 12 12 11 10
3 3 2 1 1 1 1 1 2 2 2 3 3 4 5 5 6 6 7 8 9 8 8 8 7 7 8 8 9 9 10 10 10 10 10 11 12 13 14 15 15 15 14
3 3 3 2 2 1 1 1 2 2 2 2 3 4 4 5 6 7 8 9 9 9 9 8 9 9 10 11 12 13 13 13 13 14 14 14 15 16 16 17 17 17 16
4 4 3 3 2 2 2 2 2 3 3 2 3 4 4 5 6 7 8 9 9 10 10 10 11 13 14 15 16 16 16 16 16 16 16 16 17 17 17 17 17 17 17
4 4 3 3 3 3 3 3 4 4 4 4 4 4 5 5 6 8 9 9 10 12 12 13 14 15 16 16 16 17 17 17 17 17 17 17 17 17 17 17 17 17 16
4 4 4 4 4 4 4 4 5 6 6 7 7 7 7 8 9 10 11 12 13 14 15 15 15 16 16 16 17 17 17 17 16 17 17 17 18 18 17 16 16 15 15
5 5 5 6 7 7 8 8 8 9 10 10 10 11 11 11 12 13 13 14 15 15 15 16 16 16 16 17 17 17 17 17 17 17 17 17 17 17 16 15 15 14 13
8 8 9 10 11 12 12 12 12 13 13 14 14 13 13 13 14 14 14 15 15 16 16 16 16 17 17 17 17 17 17 17 17 17 17 17 16 16 15 15 14 13 13
11 11 12 12 13 13 13 13 13 14 14 14 15 14 14 14 14 14 14 15 15 16 16 16 16 17 17 17 17 17 17 16 16 16 15 15 15 15 15 14 14 13 13
11 11 11 12 12 12 12 12 12 12 12 13 14 14 14 14 14 14 14 15 15 16 16 16 16 16 17 17 17 16 16 15 15 14 14 14 13 14 14 14 13 13 13
10 10 10 10 10 10 10 10 11 11 11 13 14 14 14 14 14 14 14 14 15 15 15 16 16 16 16 16 16 16 15 14 14 13 13 13 13 13 14 14 13 13 12
9 9 9 9 9 9 9 9 10 10 11 12 13 14 13 13 13 13 14 14 15 15 15 16 16 16 16 16 15 14 14 13 13 12 12 12 13 13 13 13 13 12 12
8 8 8 7 7 8 8 8 9 9 10 11 11 12 12 12 12 13 13 14 14 15 15 15 16 15 15 15 14 14 13 13 12 12 12 12 13 13 13 13 12 12 12
7 7 7 7 7 7 7 7 7 8 8 9 9 10 10 11 11 12 13 14 14 14 15 15 15 14 14 13 13 13 13 13 13 13 13 13 14 14 13 13 12 12 12
5 6 6 7 6 6 6 6 6 6 7 7 8 8 9 10 10 11 12 13 13 13 14 14 13 13 12 12 12 12 12 12 13 13 13 13 14 14 13 12 12 12 12
5 6 6 7 7 6 6 5 5 5 6 6 7 7 8 9 10 11 12 13 13 13 13 13 13 12 12 11 11 12 12 12 12 13 13 13 13 14 13 12 12 12 12